Theta_e
332 331 329 325 323 323 319 319 303 313 309 299 301 302 298 305 306 305 302 306 307 313 315 318 317 317 314 313 313 319 321 316 317 309 310 325 334 337 339 340 341 343 343 345 344 345 345 347 348 347 345 345 349 348 348 347 348 348 348 348 348 348 347 345 344 343 343 342 339 338 339 339 338 337 339 339 338 341 341 340 340 340 340 340 341 341 340 340 339 339 338 337 337 337 336 335 335
328 329 329 326 321 325 314 313 307 301 304 300 299 302 302 303 305 303 304 312 312 313 315 316 317 318 318 317 315 317 321 324 325 324 328 332 335 336 339 340 340 341 344 344 343 344 344 346 346 345 345 345 344 347 348 348 348 347 347 347 346 347 347 345 345 343 342 340 339 339 339 339 341 340 339 339 339 338 338 339 340 340 341 341 341 340 340 339 339 338 337 336 336 335 334 334 333
328 328 327 324 320 318 315 315 301 299 298 297 299 301 305 303 304 309 311 313 315 316 316 317 319 318 317 317 315 316 313 329 327 328 327 334 329 334 341 340 340 342 343 344 343 344 343 345 345 346 345 344 343 344 347 348 348 347 347 346 347 347 346 345 344 342 340 340 339 338 337 337 337 338 338 339 340 341 339 338 339 340 340 340 340 340 341 340 340 340 338 336 335 335 334 333 332
331 330 325 321 313 320 311 309 305 299 297 299 297 305 304 305 307 309 311 314 314 315 318 314 314 320 315 315 314 319 323 323 329 328 326 329 330 335 339 340 341 341 343 344 344 344 344 344 345 346 344 343 343 343 345 348 347 348 347 346 346 346 346 345 343 341 340 340 339 338 338 339 341 340 340 340 340 338 338 338 339 339 340 339 339 339 339 339 338 338 338 337 335 335 334 333 333
330 328 327 322 318 312 312 309 302 302 297 299 296 303 305 308 309 312 312 314 314 315 316 316 315 322 321 316 319 315 317 326 328 331 329 334 337 337 338 341 340 340 341 343 344 344 343 343 345 345 344 343 342 342 343 345 347 346 346 345 346 346 346 345 343 342 341 340 339 339 340 340 340 339 339 338 338 339 339 339 338 338 339 338 338 339 338 338 337 337 337 337 335 334 333 333 333
327 325 330 324 314 318 311 303 301 299 302 303 300 301 306 308 310 311 312 316 315 316 313 314 315 314 315 316 324 320 326 321 329 331 333 331 336 339 339 341 339 339 341 341 344 344 343 342 345 345 343 342 342 341 342 342 343 343 344 343 343 343 346 345 343 342 342 341 340 341 341 340 339 337 336 336 338 339 339 337 336 336 337 338 338 338 338 338 337 337 336 336 334 334 334 333 332
324 320 323 322 318 318 305 302 302 302 300 305 303 304 306 310 311 311 311 312 316 315 318 315 316 314 311 319 324 327 330 332 330 331 335 335 337 339 340 339 339 339 340 341 343 344 342 341 345 345 344 342 341 341 340 340 341 340 343 342 342 342 342 341 341 340 339 338 341 342 342 340 338 338 337 337 337 338 337 337 338 338 337 337 338 338 337 337 336 336 336 335 334 334 332 332 332
329 321 319 311 308 310 303 303 304 305 301 305 306 306 308 310 312 311 308 311 308 310 312 314 314 312 313 320 314 326 331 333 333 336 336 336 337 339 341 338 338 338 339 340 344 343 345 341 345 345 344 342 341 341 341 340 341 341 341 341 341 342 341 340 339 339 339 342 343 344 343 341 339 338 337 336 337 336 336 337 338 337 337 336 336 336 336 336 336 336 335 335 334 333 332 332 331
324 321 327 315 306 311 304 303 306 306 303 305 306 311 314 311 311 312 307 310 307 310 309 313 313 309 311 313 320 325 328 333 335 337 336 336 337 338 338 338 337 338 339 343 343 342 342 340 344 345 344 343 341 341 341 341 340 341 341 340 340 341 341 340 339 340 341 343 343 343 343 341 339 338 336 335 336 337 336 336 336 336 336 335 335 335 335 335 335 335 335 334 335 334 332 332 331
319 319 312 313 311 302 304 305 304 305 304 306 305 307 310 310 311 313 310 306 307 307 312 312 312 308 311 316 320 324 325 331 333 334 336 336 337 337 337 338 339 339 339 342 343 342 342 345 339 343 344 343 342 343 341 341 340 341 341 340 340 340 341 340 339 341 341 344 343 343 343 341 340 339 339 339 338 336 334 336 337 336 336 335 335 334 334 334 334 335 334 334 333 333 332 333 331
312 319 324 311 304 302 303 304 307 305 304 305 307 309 311 309 309 311 312 309 308 310 312 311 306 307 308 316 321 330 331 332 331 332 336 337 337 336 335 337 340 340 340 341 343 343 342 342 343 339 342 342 344 344 343 341 341 340 340 340 340 340 339 340 341 341 341 343 342 342 342 341 340 340 340 339 337 336 337 338 336 335 334 334 334 334 334 334 334 334 335 334 332 333 332 333 332
311 312 317 306 304 304 305 305 305 305 305 304 305 310 311 311 312 308 310 307 305 308 309 307 312 312 310 311 319 326 330 332 332 334 336 337 336 338 338 336 340 340 342 341 342 343 341 342 341 344 336 338 341 342 343 343 342 341 340 339 341 340 340 342 341 340 340 340 340 342 342 341 341 340 339 338 340 338 338 337 336 334 334 335 334 334 334 334 333 334 334 333 332 331 332 332 332
314 315 309 306 305 306 307 306 307 304 305 303 306 310 311 311 309 310 307 309 307 305 308 309 314 310 309 315 323 327 328 332 334 336 337 336 336 336 340 337 339 340 342 341 340 342 342 341 340 341 338 334 334 337 339 340 341 342 342 341 343 344 344 342 341 341 340 340 339 340 341 341 340 340 340 338 338 338 338 337 335 335 334 335 334 334 334 333 334 333 333 332 332 331 332 332 333
315 318 311 304 309 307 306 306 307 306 303 308 310 312 312 309 310 311 308 306 305 308 314 313 310 313 308 316 320 323 327 333 335 336 337 336 336 336 339 338 340 339 341 341 340 340 342 341 339 339 338 338 338 334 334 337 338 340 340 341 344 343 343 343 342 343 342 343 341 340 340 340 340 340 339 339 338 338 339 338 336 335 334 334 333 334 333 333 333 333 333 333 333 332 332 332 332
315 318 311 308 304 305 308 305 307 306 303 309 310 311 311 314 313 312 309 307 309 315 315 316 320 312 305 305 318 324 328 332 334 335 336 336 336 336 339 338 338 339 338 338 340 339 340 341 340 339 339 339 338 337 337 335 334 336 339 339 342 342 342 341 341 339 339 338 337 336 336 335 337 338 339 338 337 336 335 335 337 336 334 334 334 333 333 333 333 333 334 333 334 333 332 332 331
322 315 311 305 303 304 307 307 309 307 304 309 311 312 311 312 314 311 311 312 311 316 313 308 317 311 311 317 324 329 331 333 334 335 335 335 335 336 336 336 335 337 338 338 338 339 339 339 339 339 339 338 338 338 337 337 331 332 335 337 338 339 339 337 336 334 333 331 330 331 331 330 330 330 329 330 333 333 333 330 334 336 334 334 333 332 333 333 334 333 334 334 334 334 333 331 331
323 319 305 304 301 304 307 306 308 303 305 308 311 310 308 309 313 312 313 316 310 310 311 314 310 316 318 320 328 331 332 333 332 333 333 332 333 331 332 332 333 334 338 336 337 337 338 337 338 338 339 339 339 339 338 337 334 330 331 332 333 334 334 332 329 325 324 324 325 326 329 333 332 330 331 330 328 328 326 327 333 335 335 333 333 332 332 333 334 333 333 333 333 333 332 332 331
321 309 305 302 304 304 310 308 310 309 305 306 309 310 308 307 309 311 314 312 310 310 309 313 316 315 321 322 327 332 332 331 332 331 329 329 330 330 330 331 331 331 333 334 336 337 336 337 337 338 338 338 338 340 340 339 335 334 336 334 333 330 328 327 328 329 330 328 323 325 331 332 332 332 332 333 327 327 325 324 327 331 333 333 334 332 332 332 333 333 332 332 331 332 328 324 325
313 308 306 302 306 308 310 309 309 306 304 307 308 309 309 308 310 310 306 306 307 308 309 311 311 313 320 322 327 331 331 330 330 330 328 328 327 328 328 330 331 332 332 333 334 336 337 337 337 337 337 337 336 337 339 338 334 334 334 336 335 330 331 330 332 331 331 329 328 330 330 330 328 330 331 331 329 323 324 322 325 328 330 330 331 332 332 332 333 332 331 331 331 331 323 322 322
313 309 304 306 311 312 313 310 308 308 307 306 307 307 306 308 309 311 307 305 307 305 306 307 309 310 315 318 321 329 330 329 329 328 328 328 328 328 328 328 329 330 332 333 333 336 336 335 337 337 336 336 336 335 337 337 334 334 332 334 334 334 332 332 333 333 332 332 331 331 329 327 327 328 329 330 329 325 323 321 322 324 325 325 325 326 329 331 331 330 328 329 328 324 322 324 323
313 310 306 309 311 308 311 311 308 307 307 307 306 307 305 308 309 309 308 304 304 307 310 309 309 311 312 318 320 325 329 328 328 328 328 328 328 328 329 329 329 330 331 333 332 334 335 335 335 336 336 336 335 335 334 334 336 335 333 332 333 335 334 333 333 333 332 333 332 330 331 327 327 328 327 326 326 327 326 325 323 324 323 322 320 321 321 323 323 322 320 321 320 321 321 322 321
314 310 312 313 314 310 311 309 307 306 306 307 306 304 306 309 308 308 308 303 302 306 309 311 312 313 314 318 319 322 325 328 328 327 328 327 328 327 328 328 330 331 330 329 330 331 333 334 334 334 335 335 335 335 334 333 334 334 332 332 332 334 335 333 332 332 332 332 331 330 329 326 324 324 325 326 326 326 325 324 324 325 324 323 318 321 322 323 320 322 322 320 320 321 322 321 319
306 310 312 313 313 311 309 310 304 306 309 307 306 306 307 308 306 307 306 305 308 310 310 310 314 318 319 321 321 320 320 325 327 327 327 327 328 328 328 327 327 327 328 328 329 330 332 333 333 334 334 334 334 335 335 333 332 332 332 333 332 332 334 333 331 330 332 332 331 330 327 324 324 322 322 321 323 325 326 326 326 326 327 326 321 322 322 323 320 320 322 321 322 322 321 320 321
312 307 311 312 313 312 314 307 306 306 308 307 304 306 304 305 302 308 306 308 310 311 310 310 312 315 318 320 321 321 320 320 324 327 328 328 328 329 328 327 327 328 327 328 328 329 330 332 333 333 334 334 333 334 334 332 332 332 332 331 332 329 331 332 330 330 331 331 330 329 328 326 324 322 323 321 319 321 322 324 325 325 325 323 323 323 321 319 320 319 321 322 322 322 321 321 321
311 309 311 312 313 312 313 307 306 307 308 307 306 304 303 305 305 305 305 308 310 310 310 310 310 311 312 316 318 320 320 320 322 324 326 326 328 329 330 328 327 327 327 328 328 328 329 331 332 332 333 333 333 334 333 332 332 332 331 331 331 329 330 329 330 330 329 329 330 329 327 325 324 323 322 321 320 319 319 320 321 322 323 322 323 322 321 319 319 319 319 319 320 320 320 321 321
313 311 311 312 312 311 311 311 309 308 310 308 305 304 307 309 305 303 305 307 309 310 309 309 309 308 309 310 315 317 316 318 321 322 323 325 326 327 328 328 327 326 328 329 329 329 329 331 331 331 332 333 333 332 331 331 331 331 332 331 331 330 330 330 329 328 328 328 329 329 327 326 324 321 321 320 319 318 319 320 320 320 320 321 322 322 321 319 319 318 317 318 319 320 320 321 320
314 312 312 311 312 312 311 311 310 310 309 309 306 306 308 309 304 301 308 309 310 309 308 310 309 309 309 310 310 311 314 315 319 321 322 324 325 325 326 328 327 327 328 328 329 329 329 330 330 331 332 331 333 332 331 331 331 330 331 331 331 331 331 331 330 329 328 327 326 328 327 326 324 322 321 320 319 319 319 319 320 320 319 319 321 321 322 319 318 317 317 317 318 319 320 319 318
314 312 311 311 312 313 311 309 309 309 306 308 308 305 308 309 304 303 309 311 310 309 309 308 308 307 307 309 310 311 311 314 316 320 320 322 323 324 325 327 328 328 328 328 329 330 330 330 330 330 331 332 331 332 331 331 331 331 330 331 330 331 331 330 330 330 328 329 327 326 327 326 323 322 322 321 320 320 319 318 319 319 319 320 321 321 320 319 318 318 318 318 318 320 320 319 320
313 313 306 308 310 309 309 307 308 309 306 308 309 304 303 305 303 306 309 312 308 308 307 308 307 307 307 307 307 308 311 311 313 316 320 321 324 327 325 327 329 329 329 330 330 330 330 330 330 330 331 331 331 331 331 331 331 332 331 330 330 332 331 331 330 330 330 330 329 327 326 325 323 323 322 322 320 321 320 319 319 319 320 320 321 321 321 319 318 317 317 318 318 318 318 318 320
312 310 306 305 305 305 309 309 309 308 308 308 308 295 299 304 307 310 310 310 311 308 307 308 308 308 308 309 308 308 310 313 312 314 317 320 323 326 326 328 328 330 329 328 329 330 331 332 331 332 331 331 331 332 330 331 331 331 331 331 330 331 332 331 330 330 330 330 329 329 328 326 325 325 323 322 322 321 320 320 319 319 318 319 319 319 319 318 317 316 316 317 316 315 315 316 316
305 308 307 301 299 299 308 309 308 306 309 308 308 296 300 306 310 312 312 311 309 308 307 307 309 310 309 309 309 309 311 313 314 315 318 321 322 323 327 328 328 329 328 328 328 330 330 331 331 331 330 330 330 331 329 331 331 331 330 331 331 330 331 331 330 330 330 330 330 329 329 328 326 326 324 322 321 320 320 320 319 319 318 318 318 318 319 318 317 316 315 317 316 314 314 316 317
306 301 298 301 299 301 307 310 308 304 307 309 305 296 300 305 309 313 314 312 311 308 309 309 310 311 311 312 311 310 311 313 315 317 318 321 322 320 322 325 327 328 328 329 329 329 330 330 330 330 329 330 330 330 330 329 330 331 331 328 331 331 330 331 331 331 330 329 329 329 329 329 328 327 325 323 321 321 320 320 320 321 320 319 318 317 318 317 316 317 316 316 314 314 314 314 315
304 301 298 298 300 300 303 307 309 309 307 307 305 298 303 304 310 312 314 313 310 308 308 309 311 311 312 312 312 312 312 310 314 316 317 319 321 320 320 323 325 326 328 329 329 329 329 330 329 329 329 330 330 331 330 329 329 329 330 330 330 330 331 331 331 331 330 329 329 329 329 329 329 329 327 325 322 321 320 320 321 321 322 320 318 317 317 317 316 317 316 316 316 314 314 315 315
299 302 298 301 299 300 298 305 308 308 307 301 305 302 302 306 308 309 310 311 309 307 308 309 310 310 311 312 312 311 312 312 311 312 314 316 318 320 321 321 325 325 326 328 329 330 329 329 329 329 330 330 330 331 331 330 329 329 328 329 328 329 330 331 332 331 330 329 329 329 329 329 328 329 329 327 324 323 321 320 321 322 322 321 320 318 317 317 317 318 316 316 316 315 314 315 315
297 298 298 299 301 303 301 300 304 306 306 304 303 302 303 305 308 310 311 310 310 309 309 309 309 309 310 311 311 312 311 311 312 313 314 315 317 319 320 321 323 324 325 326 328 329 330 330 329 328 329 330 330 331 330 330 330 329 328 327 328 328 329 331 332 330 330 330 329 329 329 328 327 328 328 328 326 324 321 321 321 321 321 321 320 320 318 318 317 317 317 316 316 316 316 315 316
301 302 300 301 298 299 300 305 307 307 304 303 304 302 302 304 306 308 311 312 309 309 309 309 310 310 311 311 311 311 311 312 313 315 317 316 316 318 319 319 323 324 324 324 325 327 328 330 329 329 329 330 330 330 330 329 329 327 326 326 326 326 328 329 331 331 331 330 329 329 328 329 328 327 328 328 327 325 324 321 321 321 321 321 320 319 318 318 317 316 315 316 315 316 316 317 316
306 302 301 301 301 301 305 306 308 308 305 303 304 305 304 305 307 308 309 310 310 310 308 308 309 309 310 310 311 311 311 312 315 317 318 318 319 319 318 319 320 323 323 323 323 325 326 328 328 328 329 330 329 328 329 329 327 326 326 325 325 326 327 328 329 330 330 330 330 329 328 328 329 328 327 328 327 324 325 323 321 321 321 320 320 319 319 319 319 318 316 315 315 315 315 317 316
305 302 300 300 302 300 305 305 306 308 304 301 304 303 303 305 307 309 310 309 308 308 308 308 309 309 309 310 311 311 312 315 317 317 318 318 319 320 320 318 317 320 322 323 322 323 325 326 327 328 329 329 329 329 329 328 329 328 326 325 325 326 326 325 326 328 329 330 329 329 328 328 329 328 326 327 326 326 325 324 321 321 321 321 320 319 319 317 318 318 318 316 316 315 314 316 317
304 300 299 300 301 304 307 305 305 305 303 299 302 301 302 304 306 308 308 308 308 309 309 310 310 310 310 310 310 311 311 312 314 316 316 317 318 320 319 318 318 319 320 322 322 323 324 325 326 327 328 329 329 329 329 328 329 329 328 326 326 325 327 327 327 327 328 329 329 329 328 328 328 328 327 325 326 326 326 325 322 321 321 320 319 319 319 319 319 318 318 317 314 315 315 316 316
303 300 296 295 301 300 296 302 304 304 302 299 299 298 299 302 304 305 307 307 308 310 311 311 311 310 310 311 311 311 311 312 312 313 314 315 315 317 318 317 317 317 317 317 321 323 324 324 325 326 327 329 329 329 327 329 329 329 329 327 327 326 325 326 327 327 327 328 327 328 328 328 328 328 328 326 325 326 326 325 324 322 321 321 320 318 318 319 319 318 318 317 316 313 314 314 317
303 302 299 299 300 301 300 302 303 304 303 303 299 297 297 299 299 301 305 307 307 308 308 309 310 311 312 312 312 312 311 311 312 312 313 314 314 315 316 318 317 316 316 316 318 321 324 324 325 326 326 327 329 327 327 328 328 326 327 326 325 325 323 324 324 324 325 325 326 327 327 328 328 328 329 328 325 325 326 326 324 323 322 321 320 319 319 319 319 319 319 317 316 315 313 314 315
299 302 301 301 304 301 301 301 300 296 294 300 299 288 290 296 299 300 303 304 304 306 306 306 307 308 309 309 310 311 313 313 313 313 314 314 314 314 315 316 317 316 316 317 318 319 321 323 325 326 326 326 327 328 328 328 327 326 325 324 322 322 321 321 321 322 322 323 324 326 326 327 328 328 328 328 326 325 325 325 324 323 322 321 320 320 319 319 319 319 319 319 317 316 315 314 313
297 299 304 303 303 302 302 301 300 289 286 296 301 290 285 293 295 296 298 301 302 304 304 306 307 308 308 308 310 310 311 312 313 314 314 313 313 314 315 315 316 317 317 318 318 318 319 321 323 325 326 326 327 327 328 326 326 326 326 325 324 323 322 322 324 324 324 324 324 324 325 326 327 327 327 328 327 325 325 325 325 324 323 322 320 320 319 319 319 319 319 319 318 317 315 312 313
296 302 302 302 300 300 299 299 298 294 300 299 300 296 287 288 294 299 300 300 300 300 300 302 305 307 307 307 308 309 311 311 312 313 314 314 314 314 314 314 315 317 317 318 318 319 318 318 320 323 324 324 326 327 327 327 326 326 325 325 324 324 323 322 323 323 324 324 324 324 324 325 326 327 327 327 327 326 325 325 325 325 324 323 321 320 320 320 319 319 319 319 318 317 316 313 312
298 302 303 300 300 301 301 299 296 297 294 289 293 296 286 288 293 299 300 297 298 299 300 301 305 306 306 307 308 308 308 309 309 310 313 314 314 314 313 313 314 314 315 317 317 317 318 319 319 321 323 324 325 326 326 327 325 325 326 325 324 324 324 324 323 323 323 323 323 324 324 324 325 326 326 326 326 327 324 325 325 325 325 324 321 322 321 321 319 319 318 318 317 317 317 316 313
300 304 303 300 300 300 299 296 294 293 290 286 291 295 287 288 293 294 296 296 296 298 300 301 303 306 307 308 308 308 307 307 309 310 312 313 314 313 314 314 314 313 315 317 317 316 317 317 318 319 321 323 324 325 325 326 326 324 325 325 325 325 324 324 323 323 322 323 322 323 324 324 324 325 325 326 326 326 326 324 325 325 325 325 321 322 322 321 321 320 319 319 318 317 317 316 315
303 301 298 297 296 295 294 294 291 288 286 288 294 295 292 285 291 292 293 296 298 299 300 301 303 304 305 306 306 307 307 307 309 312 312 313 313 313 314 312 312 312 314 316 315 315 315 317 317 318 319 321 323 324 325 325 326 325 324 325 325 325 324 323 323 322 322 322 322 322 323 324 324 324 325 325 326 326 326 324 324 324 325 323 322 323 323 322 322 321 321 320 319 318 317 317 315
300 296 294 293 290 292 289 286 289 285 284 291 295 294 295 284 288 294 299 300 300 300 300 302 301 303 305 306 307 307 306 307 310 310 310 311 312 311 311 310 310 310 311 312 313 315 314 315 315 315 317 319 321 322 324 325 325 325 324 324 324 325 324 324 322 322 323 322 322 322 323 323 323 324 325 324 325 326 325 325 324 324 323 324 324 324 324 324 323 323 322 321 320 319 319 317 317
298 295 293 287 284 285 282 286 282 284 284 289 294 295 290 290 294 297 300 299 300 301 301 301 302 302 303 303 305 306 307 309 310 310 311 311 310 309 310 310 310 311 311 311 312 313 314 313 313 313 313 315 319 321 322 324 324 324 325 324 323 324 324 324 324 323 323 323 323 322 322 322 323 323 324 324 324 325 325 325 324 323 323 323 324 324 325 324 324 323 322 321 321 320 320 319 318
295 292 289 285 281 280 278 283 285 285 288 293 292 295 289 295 297 301 301 303 304 303 302 303 302 303 303 304 305 306 307 310 310 311 310 310 310 310 311 311 311 311 312 313 312 311 313 314 312 312 312 313 316 319 321 322 324 324 325 324 324 323 323 324 325 324 324 324 324 323 323 323 322 323 323 324 325 325 325 325 325 324 324 324 323 324 324 324 324 323 322 322 321 321 321 320 320
294 296 293 287 286 282 278 282 280 282 285 287 293 288 285 287 292 298 300 301 304 306 306 303 303 304 305 305 305 307 307 306 308 309 309 310 310 310 311 313 311 311 312 311 311 311 311 311 312 312 311 311 313 315 318 320 322 324 324 324 324 323 323 323 324 325 325 324 324 324 324 324 323 324 324 324 324 325 325 325 325 325 324 324 323 323 324 324 323 323 322 322 321 322 321 320 320
295 295 296 289 286 290 283 285 284 283 284 284 287 287 293 293 300 301 303 302 301 302 303 303 304 305 305 305 305 306 306 306 307 309 310 310 310 310 312 312 311 309 309 310 310 309 310 310 310 310 311 311 312 312 314 318 320 323 324 324 324 323 322 322 322 323 324 325 325 324 324 324 324 324 324 324 324 324 325 325 324 324 325 324 323 323 323 323 323 323 322 322 321 322 321 320 320
292 294 287 290 299 292 285 285 285 285 284 282 288 288 292 298 300 301 302 301 301 299 300 301 303 303 303 304 305 305 307 305 309 310 310 310 309 309 311 310 309 307 306 307 309 309 309 309 309 310 310 309 310 311 312 314 317 319 322 323 323 323 323 322 322 322 322 324 324 324 324 324 324 324 325 324 324 324 325 324 324 324 324 324 324 323 323 323 323 322 321 321 321 321 320 320 320
294 287 292 297 299 296 289 282 284 283 280 282 287 285 286 287 284 297 298 298 299 298 299 301 302 301 301 303 304 307 307 307 309 310 310 309 309 310 310 309 308 308 306 305 306 306 307 308 308 308 308 308 309 310 311 312 313 315 319 321 322 323 323 323 322 322 322 322 322 323 324 323 323 324 324 324 324 324 324 320 324 323 324 324 323 323 323 323 322 322 322 321 322 321 320 320 320
296 292 300 291 283 284 287 285 279 279 279 281 284 286 286 290 290 295 296 296 297 299 301 300 300 301 302 303 304 305 306 308 308 310 309 309 307 307 308 308 307 307 305 304 305 306 305 305 305 306 307 307 308 309 309 311 313 315 318 319 321 322 322 323 323 322 321 321 321 322 322 323 323 323 322 322 322 323 323 323 323 323 323 322 323 323 322 322 322 321 321 321 321 321 320 319 320
299 299 294 297 292 286 285 286 285 285 279 281 280 284 282 291 292 295 295 297 298 299 299 299 299 300 302 303 304 304 306 307 307 307 306 306 306 306 307 305 304 305 303 303 304 303 304 304 304 304 305 305 305 306 307 308 309 312 315 317 319 321 321 322 322 321 321 321 321 321 322 321 322 322 322 323 322 322 322 322 322 322 322 322 322 322 322 322 321 321 320 320 320 320 320 319 319
290 291 290 291 288 293 292 290 285 283 280 281 280 279 283 291 297 296 296 297 298 298 298 298 299 300 301 302 304 304 304 305 305 305 306 306 305 304 304 304 304 304 303 302 303 304 304 303 303 303 304 304 304 305 306 307 308 309 310 313 316 318 319 321 321 321 321 322 322 320 322 322 321 322 322 322 322 322 322 322 322 321 322 321 321 321 321 321 321 320 320 320 319 319 319 319 319
292 292 289 291 288 284 283 280 289 284 283 279 281 279 285 293 298 299 298 298 297 299 299 300 300 299 300 301 301 302 304 304 304 305 305 305 304 304 304 305 304 302 303 302 304 304 303 304 304 303 303 304 304 305 305 306 307 309 310 312 314 316 318 320 320 321 321 321 322 322 321 320 320 322 321 322 322 322 322 322 322 322 321 321 321 321 321 320 320 319 319 320 319 318 318 318 318
Wind_Speed
11 10 9 9 7 4 5 3 2 1 1 5 2 2 2 2 2 3 4 5 4 4 5 4 4 4 6 3 3 11 11 7 5 1 1 2 3 6 5 11 7 10 11 8 8 5 5 8 9 8 8 8 10 8 7 7 8 8 8 8 9 10 11 12 11 12 12 11 10 10 11 12 11 11 10 11 12 13 12 12 11 11 10 11 12 12 12 13 13 13 12 13 12 12 12 12 12
9 9 9 8 5 1 2 2 1 4 4 3 6 5 3 3 1 4 3 11 5 4 2 3 2 3 3 4 3 3 12 11 7 6 5 4 6 2 9 8 7 10 9 9 7 6 6 6 9 9 8 8 8 8 8 7 8 7 7 8 8 10 11 12 12 12 12 11 9 9 11 12 11 10 11 11 11 10 11 12 11 11 12 11 11 11 12 12 11 12 12 12 12 12 12 12 11
9 8 8 6 6 3 4 1 2 3 4 3 3 3 4 3 5 10 11 9 7 3 3 4 2 1 1 4 1 5 5 11 12 8 5 5 7 2 3 7 5 8 9 7 8 8 6 7 9 9 9 7 7 8 8 7 7 7 7 7 9 9 11 12 12 11 11 11 10 10 10 10 11 10 11 11 12 12 11 10 10 10 10 11 11 11 11 11 11 11 12 12 11 11 11 11 11
8 6 5 4 4 3 3 1 3 4 4 2 4 1 2 6 9 9 8 5 4 2 0 2 1 1 4 5 5 2 6 6 8 9 6 7 5 5 3 7 6 6 6 5 7 7 8 9 9 9 9 9 7 6 7 8 7 7 7 8 8 9 10 12 12 11 10 10 10 9 9 11 11 11 11 11 10 11 10 9 11 11 11 11 11 11 11 11 10 10 11 12 11 10 10 10 10
7 5 3 2 2 2 2 2 4 2 2 3 3 3 4 8 8 8 5 4 2 2 3 2 0 1 2 1 3 2 3 7 7 8 6 2 12 8 4 6 5 5 5 6 7 8 8 12 9 9 10 9 8 7 6 6 7 6 8 8 9 8 8 11 12 11 10 10 9 9 11 11 11 11 11 11 10 9 10 10 9 10 10 9 10 10 10 9 9 9 10 10 10 10 10 9 9
7 4 4 2 2 1 2 2 4 3 2 3 4 3 5 6 8 7 5 5 3 3 4 2 4 2 3 4 3 3 2 1 5 7 9 6 10 11 6 5 5 4 5 6 8 9 7 11 10 9 10 8 8 7 6 5 6 5 8 8 7 7 9 10 9 9 10 9 9 9 10 10 10 10 10 10 9 9 9 9 8 9 8 9 9 9 9 9 9 9 9 10 9 9 9 9 9
5 4 2 2 3 1 2 4 6 1 4 4 4 4 5 6 7 6 5 5 1 3 1 4 3 2 1 4 8 4 4 5 4 4 9 9 9 8 7 4 6 6 4 6 7 9 10 11 10 9 10 9 8 7 5 4 6 2 8 8 7 8 6 5 6 6 6 6 9 9 9 11 10 10 10 10 10 9 9 9 9 8 7 8 8 8 8 8 9 8 8 9 9 9 8 8 8
4 0 2 3 3 1 3 4 6 2 3 5 3 5 4 6 6 4 4 2 3 2 1 5 2 2 3 5 4 3 8 8 8 11 14 10 8 8 5 5 6 6 5 4 8 8 10 11 9 8 10 10 9 8 7 5 6 3 5 7 8 8 7 6 5 5 6 6 8 10 9 10 10 10 9 9 10 9 9 9 8 7 7 7 7 7 8 8 8 8 8 9 8 8 8 8 7
3 2 1 2 3 3 3 4 5 5 5 4 5 6 5 4 4 5 4 5 3 2 3 4 1 2 2 3 7 4 5 6 8 10 12 12 11 8 6 7 7 4 5 10 8 7 6 8 8 8 8 8 8 8 8 7 6 3 5 7 7 8 7 6 6 6 6 5 7 7 8 10 10 10 9 9 9 9 8 8 7 7 7 6 6 6 7 7 7 8 8 7 8 7 7 7 7
4 2 1 1 3 5 4 5 6 1 5 5 5 5 3 3 2 1 6 4 4 1 6 3 2 2 4 8 7 4 4 5 6 8 10 10 10 7 5 6 7 6 4 9 7 7 5 7 7 7 6 6 6 5 7 7 6 5 7 7 6 8 7 6 7 7 7 7 7 7 7 7 9 9 10 10 9 8 7 8 7 7 7 6 6 6 6 6 7 7 7 7 7 6 6 6 6
3 2 1 2 3 4 4 4 2 1 6 3 5 5 3 2 3 1 2 6 3 3 3 4 2 2 4 6 3 2 6 8 7 9 10 9 7 6 4 3 7 6 4 4 7 7 6 4 8 7 6 5 3 3 4 6 6 5 6 5 7 7 6 6 8 7 8 10 8 8 7 7 7 10 10 10 9 8 8 8 7 6 5 6 6 5 5 5 6 6 7 7 6 5 6 5 6
3 3 1 2 4 4 3 2 6 3 7 2 4 4 2 2 1 2 2 4 3 2 3 4 1 1 1 3 2 4 6 6 7 8 11 8 6 5 3 3 6 6 5 4 4 8 6 5 4 7 7 6 4 3 3 3 4 4 4 1 5 6 6 10 9 8 7 7 8 8 7 6 7 8 8 8 8 9 8 8 8 6 6 5 5 5 5 5 5 6 7 6 6 5 5 6 5
3 3 4 4 3 4 4 4 4 5 1 3 7 3 3 3 2 1 3 1 4 3 5 2 4 1 0 3 3 6 6 7 7 9 11 7 4 3 2 4 5 6 6 4 3 7 6 6 5 4 5 8 6 4 3 2 3 4 5 5 4 8 8 9 9 9 9 7 6 7 9 7 6 6 4 6 8 9 9 7 7 7 6 6 5 5 5 5 6 6 6 5 5 6 5 5 6
3 2 4 4 4 6 4 3 6 1 1 1 8 6 4 3 2 1 5 2 3 3 2 5 1 1 0 7 4 5 6 6 9 9 8 7 5 3 2 6 3 5 5 3 2 4 6 6 6 6 6 4 4 5 4 3 3 4 5 4 6 8 8 6 6 5 9 9 9 8 8 7 7 6 5 5 7 6 5 6 7 7 6 6 5 4 4 5 5 6 5 5 5 5 5 5 5
3 3 2 3 4 4 4 5 1 5 5 8 3 6 4 3 1 2 2 1 6 4 3 2 2 0 0 1 4 5 6 7 8 6 8 8 5 3 3 5 4 3 3 3 3 3 5 5 5 7 5 5 5 4 3 3 6 5 5 4 5 8 8 8 8 9 10 10 10 10 9 9 8 7 7 6 4 4 5 4 4 5 6 6 5 4 4 5 6 6 5 5 5 5 6 5 5
2 3 2 2 4 4 3 2 2 2 2 2 2 5 5 3 3 1 3 2 2 2 1 1 0 1 2 6 6 9 10 8 6 7 9 8 6 3 3 4 3 3 3 2 3 3 3 4 4 6 6 5 5 5 5 5 5 8 7 6 6 7 9 9 10 9 9 10 9 9 9 7 7 7 9 6 5 5 5 4 5 5 7 7 6 5 5 5 6 5 5 5 6 6 6 6 6
2 1 2 3 6 4 2 5 1 2 4 4 3 4 3 3 1 2 2 0 3 2 0 3 2 1 4 3 7 9 9 7 7 7 8 7 6 4 4 3 2 3 3 3 3 3 3 3 4 6 6 6 6 6 5 6 6 7 6 8 7 8 9 10 10 10 9 7 7 7 8 6 5 4 6 5 6 3 7 7 5 5 5 5 6 5 5 6 6 6 5 6 6 7 6 7 7
1 2 2 5 4 5 3 3 3 5 5 3 3 3 2 6 2 2 0 1 2 4 2 3 3 0 8 6 6 9 8 8 7 8 7 7 6 6 6 4 4 4 4 4 4 4 4 4 4 4 5 5 6 6 4 5 6 6 5 5 5 6 7 8 8 6 6 4 5 5 4 5 5 5 4 6 5 4 4 7 7 5 6 4 4 6 6 6 6 5 5 5 7 7 8 5 4
3 2 4 6 4 2 5 3 7 5 4 4 4 1 1 5 5 2 2 3 4 3 3 4 3 3 9 6 7 9 9 7 8 7 8 9 8 10 8 7 6 6 6 6 5 6 5 5 5 5 5 5 4 5 4 6 7 5 5 6 6 7 6 6 6 6 5 5 5 5 5 5 5 4 5 5 5 7 5 4 6 5 3 4 4 3 3 6 6 3 4 5 8 8 6 5 4
4 4 5 5 6 7 1 1 6 5 4 4 1 3 3 2 1 2 1 3 5 6 4 5 6 7 9 8 7 9 8 8 7 7 7 7 7 8 9 9 8 7 8 8 7 6 7 6 7 6 6 5 5 5 4 7 6 6 5 6 6 6 6 6 6 6 5 6 6 5 5 6 4 6 7 10 8 5 4 4 4 5 3 1 2 1 1 4 6 4 4 6 6 4 5 6 4
3 6 6 5 1 3 3 6 7 6 6 3 4 2 1 2 2 3 1 2 4 4 6 7 8 6 11 12 9 8 9 8 7 7 7 6 6 5 6 8 8 8 7 8 7 8 9 7 7 7 6 6 5 6 6 6 8 6 6 6 7 6 6 6 5 6 6 6 7 6 6 3 6 6 6 6 5 5 5 4 3 3 3 4 4 3 4 4 3 4 3 5 5 4 5 6 5
3 6 6 7 8 5 7 7 6 3 3 3 3 1 1 4 3 1 1 3 2 2 9 7 1 5 12 13 10 8 8 8 9 8 8 8 8 6 5 5 6 7 5 7 8 7 8 8 7 6 7 6 7 6 6 6 8 7 6 7 7 7 7 7 6 6 6 6 6 6 6 2 3 4 6 6 6 5 6 6 6 5 6 5 6 5 6 6 5 5 5 5 6 5 7 4 1
6 6 8 5 4 10 4 1 2 1 1 1 2 2 3 0 2 3 4 6 2 4 4 4 6 10 10 10 9 8 7 9 9 9 8 8 9 8 6 5 5 5 6 5 5 5 7 7 7 6 7 6 7 6 6 6 6 6 7 7 7 7 7 8 7 6 7 6 6 6 5 2 4 2 2 3 5 6 6 6 6 6 6 6 6 6 6 6 7 6 6 6 6 7 4 1 1
9 6 4 8 8 11 6 5 2 0 1 1 3 1 3 3 4 3 6 4 7 1 4 7 6 4 4 9 7 8 7 9 9 9 9 9 8 9 7 6 5 5 5 5 4 5 6 7 7 6 7 6 5 7 6 6 5 6 6 7 7 7 7 8 7 7 7 7 6 6 6 5 6 4 5 5 5 5 5 5 6 6 6 4 5 6 6 6 7 7 7 6 7 5 3 4 4
11 10 5 10 6 3 2 5 1 2 1 0 0 2 4 4 4 3 2 3 2 3 4 4 4 4 3 4 6 6 6 6 7 7 6 6 6 5 5 5 5 6 7 7 7 6 6 7 7 7 6 7 6 6 7 5 5 6 5 6 6 6 6 6 7 6 6 6 6 6 5 6 5 5 7 7 6 5 4 3 4 4 4 4 5 5 6 6 6 7 6 5 5 4 5 4 4
9 7 4 7 10 4 3 2 3 3 2 3 3 4 4 7 4 4 5 6 4 3 4 4 4 4 4 4 6 6 6 6 6 7 8 6 6 7 7 6 5 6 6 6 7 7 6 8 8 8 8 8 7 6 6 6 6 7 7 6 6 6 5 5 5 6 6 6 6 6 6 6 6 7 7 7 7 6 5 4 4 4 4 6 6 5 6 6 6 6 5 4 4 5 6 6 6
3 8 10 11 11 7 4 7 4 4 4 3 5 5 6 4 6 5 5 10 9 7 4 6 5 5 5 5 5 6 7 7 8 6 5 6 6 7 7 7 7 7 6 7 7 7 6 8 9 9 9 8 8 8 7 6 5 5 6 6 6 6 6 6 5 5 5 6 6 8 7 7 7 6 5 6 6 6 6 6 6 6 6 6 6 6 6 5 6 6 6 6 7 6 7 4 5
10 5 5 8 10 13 2 4 5 3 3 5 4 6 4 4 4 8 3 2 3 6 9 6 6 5 5 6 6 6 6 6 6 7 8 8 8 8 7 8 9 7 8 9 8 7 8 8 9 10 10 10 9 9 8 8 7 6 5 6 6 6 6 6 6 5 5 5 5 7 8 7 6 5 4 6 7 7 6 7 7 7 6 6 6 6 6 6 6 5 6 6 6 6 6 5 4
8 9 10 7 9 9 4 5 5 4 4 5 4 4 7 6 10 6 6 11 4 4 5 6 7 6 6 5 5 5 6 5 5 6 8 7 7 7 9 8 9 9 7 8 8 8 10 9 9 10 10 9 10 10 9 8 8 7 6 6 6 6 7 6 6 7 6 6 6 5 7 8 7 6 7 6 7 8 7 7 6 6 6 6 6 6 7 5 5 5 6 6 3 1 2 4 3
4 4 4 6 8 10 8 7 7 6 4 5 4 5 5 10 13 12 12 13 10 8 7 6 5 7 6 6 5 5 5 6 6 7 7 7 8 9 10 9 9 9 8 6 7 9 9 7 8 8 11 11 11 10 9 8 8 7 7 6 6 6 7 7 7 6 7 6 6 7 5 8 8 8 7 6 6 7 7 7 7 7 7 6 7 7 7 6 7 6 5 4 4 3 3 4 4
6 5 4 8 6 9 7 9 9 10 6 7 6 8 7 5 5 7 14 11 9 9 6 5 5 5 5 6 7 7 7 7 8 7 7 7 7 7 10 9 10 9 7 7 10 11 10 8 8 8 10 11 10 11 11 9 9 8 7 7 7 6 6 7 7 6 6 6 6 7 7 7 9 9 8 7 6 6 6 6 7 7 7 7 7 7 7 6 6 7 5 5 4 4 4 6 5
5 5 10 7 10 5 5 10 13 11 5 9 6 8 8 8 9 9 5 9 10 8 7 7 7 6 6 5 6 7 8 8 9 8 8 8 8 7 8 9 10 10 11 10 10 10 11 10 10 9 9 11 11 12 11 9 10 9 8 8 7 6 6 7 7 7 7 6 7 7 9 8 7 10 8 6 6 7 7 7 6 6 7 7 7 7 7 7 7 6 6 6 6 6 6 7 6
7 11 8 8 8 5 5 4 8 12 4 7 10 5 1 4 11 7 8 8 10 7 5 5 6 6 7 6 5 5 4 6 6 8 8 9 9 8 7 8 10 11 11 10 10 10 11 12 11 11 11 13 11 11 10 9 8 9 9 9 9 6 6 6 7 7 7 7 7 8 9 10 9 8 9 7 7 7 7 7 7 7 7 7 7 7 7 7 7 7 6 7 6 7 8 7 7
9 8 9 6 7 5 6 3 4 8 7 7 10 10 9 7 4 3 4 4 3 3 4 5 4 4 4 3 3 3 3 3 6 6 8 8 7 9 8 8 9 10 10 11 11 12 13 12 11 12 11 11 10 10 10 10 9 8 8 8 8 9 7 7 7 7 8 8 7 8 9 10 10 9 8 8 8 7 6 7 7 7 7 7 7 7 8 7 6 7 7 7 7 7 7 8 8
9 7 8 8 6 8 6 5 5 8 10 10 9 13 9 9 8 8 3 4 4 5 6 5 5 5 4 5 5 5 5 5 5 6 7 8 9 8 8 8 9 9 9 11 12 11 10 10 10 12 11 11 10 9 9 8 8 7 6 6 8 9 8 8 8 8 8 8 9 9 9 9 10 11 10 9 8 8 7 7 7 7 7 7 7 7 7 7 7 6 8 7 7 7 7 6 6
11 10 5 6 9 10 9 5 7 12 8 10 11 9 8 10 13 8 9 8 6 8 6 5 5 6 6 6 5 5 5 6 5 5 6 7 6 9 9 8 9 9 9 9 10 10 10 9 9 9 11 11 9 8 8 9 8 8 9 7 7 9 9 9 10 9 8 9 10 10 10 9 9 10 12 11 9 8 8 8 8 8 7 7 8 8 7 7 9 8 8 8 7 7 7 7 5
1 6 2 8 10 8 5 8 5 11 6 10 9 12 9 8 10 7 9 10 10 9 8 9 8 7 6 6 6 6 6 7 5 7 7 7 7 7 9 9 9 9 9 9 9 9 10 11 9 11 11 10 9 10 10 10 11 9 8 10 11 10 10 10 9 10 10 10 11 11 11 9 10 11 11 12 11 9 9 8 8 8 8 8 8 9 8 8 8 9 8 7 8 7 7 7 6
3 1 2 7 8 9 7 6 3 5 7 3 6 8 9 10 9 10 7 7 7 6 7 7 6 6 6 7 7 7 7 4 6 6 7 6 7 7 6 7 7 8 9 9 9 10 11 11 11 11 9 11 11 12 10 10 11 12 12 13 11 10 10 10 11 10 11 10 11 11 10 10 11 11 11 11 11 10 10 9 8 10 9 8 8 7 8 8 8 8 7 7 6 8 6 6 7
6 6 4 5 7 9 8 1 5 5 2 4 5 7 7 6 7 9 9 8 5 6 7 8 8 8 6 6 7 8 6 7 7 8 8 8 8 8 7 7 7 9 8 9 9 7 8 9 10 9 9 11 12 12 11 12 11 11 11 10 11 9 9 9 9 8 8 10 11 11 11 11 12 12 11 12 11 11 11 11 10 9 11 10 9 9 9 10 9 10 10 9 7 5 5 4 7
7 6 7 8 3 3 4 6 6 6 3 1 1 5 6 5 6 11 13 9 6 8 9 11 10 11 10 9 7 6 6 7 7 7 8 8 8 8 8 8 8 7 7 6 7 9 9 9 9 9 10 11 11 12 12 12 12 11 10 8 8 9 8 7 8 7 9 11 12 12 12 12 13 13 12 12 11 11 12 12 11 9 11 11 11 10 11 11 10 10 9 10 8 7 7 8 7
6 7 6 7 6 9 6 1 3 4 3 1 3 7 8 8 10 10 13 11 12 11 10 12 12 11 9 8 7 6 7 6 7 6 8 8 8 8 9 10 8 8 8 9 8 9 8 10 10 11 11 11 10 11 12 10 8 7 7 5 5 6 4 6 8 9 11 12 11 12 15 13 14 14 13 13 13 12 11 11 10 10 9 10 11 11 11 12 12 11 11 10 11 10 9 7 7
7 8 11 10 4 7 9 4 4 1 3 4 1 3 7 6 13 15 12 10 13 13 15 16 15 11 8 8 9 7 7 8 10 12 12 10 8 6 6 6 8 8 9 9 8 9 7 8 9 11 10 9 10 11 12 10 10 10 9 9 10 9 10 9 13 15 13 13 15 12 10 13 14 13 13 13 13 12 12 12 11 10 10 9 10 11 10 9 11 12 13 12 12 11 9 8 7
7 3 2 8 8 11 8 4 2 2 2 2 10 6 8 2 4 3 5 9 11 8 11 15 13 10 8 7 6 8 9 9 10 11 9 7 6 6 6 5 6 7 9 7 8 8 9 8 8 11 11 10 10 9 11 11 11 11 13 13 13 13 13 12 10 9 10 10 8 10 11 11 12 14 13 12 12 13 12 12 12 11 10 9 9 9 10 11 11 12 10 11 12 11 9 9 10
5 3 4 4 4 6 4 10 4 4 2 7 1 3 6 10 9 5 10 14 15 14 9 5 6 7 7 5 5 6 8 10 8 8 9 8 8 7 7 6 5 7 6 6 8 7 9 10 8 9 8 9 9 9 11 13 13 12 12 12 12 12 13 11 10 10 9 8 9 11 10 10 12 13 13 12 12 12 12 12 12 12 11 10 9 10 11 10 9 9 11 12 10 10 12 12 10
2 2 7 6 6 7 5 1 2 2 2 3 3 1 4 10 3 8 9 11 13 14 11 8 6 5 5 5 6 9 9 7 6 6 7 9 8 6 5 5 5 5 4 5 7 7 7 7 8 8 9 9 9 11 11 12 12 12 12 11 12 11 11 10 7 9 9 9 10 10 10 10 11 12 13 12 12 13 12 13 13 12 12 11 10 10 10 11 12 11 11 11 12 11 11 12 10
1 1 4 7 6 6 7 4 4 4 1 9 6 5 7 17 5 4 5 11 12 10 10 10 7 6 8 8 10 9 6 5 5 5 5 6 5 5 5 4 4 5 5 5 5 5 5 5 7 8 9 9 9 10 11 11 12 11 12 12 14 12 10 9 8 9 10 9 11 10 10 10 10 11 13 13 13 13 13 13 13 14 14 12 10 11 11 12 11 11 12 13 13 13 10 11 13
3 7 5 7 7 5 4 3 2 3 7 13 10 8 8 12 4 5 6 5 8 6 4 4 6 8 7 8 6 5 5 4 2 2 3 2 2 3 3 5 6 4 4 4 5 5 5 5 6 7 9 8 7 9 9 11 11 12 13 14 15 15 12 10 10 10 9 9 11 11 11 11 10 11 11 12 14 12 12 13 14 14 13 12 12 12 12 12 12 12 11 12 13 14 11 12 12
7 2 4 6 7 2 1 2 2 5 10 10 10 11 10 11 4 3 6 4 3 3 4 8 5 5 6 5 7 6 5 3 4 5 3 2 2 3 3 5 5 5 5 5 5 5 5 5 5 7 7 7 6 7 8 10 10 12 12 13 13 12 10 9 12 12 11 11 11 11 9 8 10 10 10 11 12 14 13 13 13 13 12 13 14 12 11 12 11 11 10 10 11 13 12 12 11
7 8 7 4 2 1 4 4 6 8 11 1 6 8 8 14 18 7 9 2 3 3 4 2 2 1 2 4 3 2 3 1 1 3 3 3 4 4 4 5 5 4 5 5 5 5 6 5 6 6 8 6 7 7 8 10 11 12 12 12 11 10 10 11 10 10 9 10 9 9 9 10 9 9 11 12 13 15 13 13 13 13 13 13 13 13 13 13 11 11 11 12 12 13 13 13 12
10 12 10 8 5 5 4 2 1 2 3 7 2 7 8 3 12 10 20 21 18 9 4 5 5 4 5 5 5 5 4 0 0 0 1 2 4 4 4 5 5 3 3 4 4 5 5 5 5 7 8 5 6 7 8 9 10 11 10 10 11 10 10 10 11 11 10 10 9 9 10 10 10 12 12 12 12 12 13 13 13 13 13 13 13 13 13 12 12 12 12 13 14 13 12 14 14
11 5 9 11 10 4 4 3 6 2 2 4 5 2 5 8 6 4 7 7 10 13 13 6 5 6 7 6 5 3 3 4 2 2 3 3 3 3 3 3 3 3 3 4 4 4 4 4 5 6 7 6 6 7 7 9 9 9 10 10 10 10 11 10 11 10 10 10 10 10 10 10 11 11 11 11 10 12 13 12 13 14 14 14 13 13 11 12 12 11 11 13 12 11 13 13 13
6 3 4 3 10 3 9 1 2 1 2 3 1 5 2 6 14 18 11 9 9 3 6 6 8 8 7 5 5 5 4 5 2 1 0 1 3 3 1 1 2 4 4 3 3 4 4 5 5 5 6 6 6 6 7 8 9 8 9 11 12 11 10 10 10 10 10 10 11 11 11 11 11 10 10 10 11 11 12 13 14 14 14 14 14 14 13 11 12 12 11 11 13 10 12 14 13
8 10 10 7 2 7 5 2 2 2 3 11 2 6 5 6 11 10 15 8 10 5 2 4 6 6 4 3 5 5 4 4 0 1 1 3 3 2 1 1 1 3 5 4 3 3 4 4 5 6 6 5 5 5 6 6 7 7 9 9 9 10 11 11 12 12 12 10 10 10 11 11 9 9 9 8 10 11 12 13 13 14 14 14 13 13 13 13 12 12 12 12 13 11 11 13 12
8 7 5 6 3 3 6 7 4 7 10 9 5 10 8 4 9 4 1 5 6 5 5 5 6 5 4 7 6 3 4 4 2 2 2 2 1 1 1 1 1 2 4 5 4 3 3 4 4 5 5 6 6 6 7 6 6 7 8 9 10 11 11 11 10 10 9 9 10 10 9 9 10 9 7 7 8 10 11 12 13 13 13 13 14 13 13 14 13 12 12 12 12 11 11 10 11
4 7 10 10 2 6 4 3 8 6 8 3 4 7 8 9 11 7 13 12 5 5 9 6 7 8 8 6 5 4 5 1 2 0 0 1 4 3 1 0 0 1 3 5 5 4 4 4 4 5 6 6 6 5 5 6 6 6 6 9 9 10 10 10 9 9 8 9 10 9 9 10 8 8 8 7 8 8 9 10 11 11 11 12 12 12 13 13 13 12 12 12 12 12 12 11 10
3 3 8 4 2 2 10 9 0 3 7 4 6 8 6 10 9 11 10 7 10 13 9 7 6 7 5 5 5 4 1 4 3 3 5 4 3 2 2 3 2 2 4 5 5 5 5 4 4 5 5 5 6 6 7 7 7 7 8 7 7 7 8 9 9 8 9 10 11 10 10 9 11 9 8 9 8 9 9 10 10 11 11 11 12 12 12 13 12 12 12 11 11 12 13 12 11
7 5 7 4 1 1 3 1 6 4 4 7 5 7 3 6 8 7 7 8 7 8 9 7 8 2 5 5 5 4 4 4 5 4 2 1 3 4 6 7 4 2 3 4 5 5 5 4 4 4 5 5 5 7 5 7 7 7 7 8 8 6 7 7 7 9 10 11 11 11 11 11 7 9 10 9 9 10 10 10 10 11 11 11 12 12 11 11 12 12 12 12 11 12 13 12 11
11 12 13 16 14 6 7 6 3 1 3 4 6 11 4 1 4 7 8 7 5 2 1 0 3 5 5 5 5 4 3 4 4 1 1 1 3 4 5 8 6 4 5 5 5 5 5 4 3 4 4 5 5 6 5 6 5 7 7 8 8 7 8 7 8 9 11 11 10 10 9 7 9 10 9 10 10 10 9 10 10 10 11 11 11 12 11 11 12 12 12 10 11 13 13 13 12
Wind_Direction
309 314 312 305 288 278 312 257 304 189 213 250 112 50 85 37 90 119 94 188 125 42 44 53 20 41 22 33 359 61 34 48 18 56 101 146 218 178 208 105 130 117 117 117 122 130 124 122 118 119 121 119 112 114 115 119 125 129 127 126 125 112 111 113 107 105 102 98 98 104 95 84 80 87 104 99 92 88 92 90 88 89 89 87 88 89 91 91 86 86 87 82 83 83 84 82 79
300 313 309 306 294 15 281 330 257 278 223 259 68 96 94 104 245 94 88 61 49 63 51 56 86 39 1 336 351 145 58 58 62 84 83 141 188 135 108 113 130 119 122 124 136 136 124 115 117 123 124 127 126 125 125 126 128 130 129 130 124 122 119 115 109 107 105 104 101 95 91 97 98 101 91 93 99 93 86 90 92 90 92 96 94 95 95 94 91 91 96 92 90 91 84 82 83
303 312 307 319 301 187 279 280 279 290 296 67 68 79 165 118 82 62 61 62 69 70 42 63 59 78 263 248 129 31 92 93 91 95 106 152 138 111 127 122 129 124 127 139 146 134 131 118 120 125 125 128 131 128 125 125 128 133 136 131 129 128 126 116 108 102 107 107 101 99 104 101 99 92 99 97 93 94 95 94 101 98 91 89 95 93 93 92 96 100 100 99 92 87 85 84 83
288 274 280 339 320 312 256 227 234 286 313 44 71 94 60 80 74 75 65 78 57 67 162 117 189 55 338 357 9 85 76 66 104 124 128 176 135 148 158 126 130 128 128 135 135 130 118 123 125 125 127 128 131 132 132 133 129 131 137 123 121 129 120 113 106 106 102 102 107 111 107 100 100 99 94 99 98 92 91 91 86 91 94 91 93 98 99 95 97 98 99 101 97 91 88 84 80
281 275 258 285 328 300 345 282 298 338 308 352 100 76 62 83 89 80 80 75 63 50 317 79 85 8 55 353 355 51 93 95 73 116 132 84 123 145 152 133 139 122 135 140 125 103 120 124 128 129 126 128 132 135 139 135 134 135 124 120 128 120 115 112 110 109 110 108 112 112 105 106 109 108 103 99 101 97 91 87 93 93 90 99 99 99 99 102 103 103 101 95 99 98 89 87 82
303 313 271 238 227 23 281 293 251 236 8 35 78 64 65 75 93 96 98 71 71 47 9 289 6 44 134 52 30 69 251 7 131 105 107 141 137 139 147 141 130 135 149 140 119 115 123 129 133 137 130 125 125 129 127 144 138 134 118 104 83 94 118 109 111 116 121 125 124 119 115 111 106 104 105 104 102 104 110 108 94 96 92 95 102 102 103 106 104 104 104 100 94 92 92 85 81
311 342 285 161 261 213 266 271 283 155 351 51 78 94 87 95 100 120 109 113 94 94 20 4 356 310 201 108 75 56 32 123 125 90 110 130 129 138 139 158 135 151 155 127 113 118 133 132 142 136 132 131 129 129 145 135 146 135 136 117 116 111 109 122 134 134 133 129 130 127 121 117 113 111 114 115 111 114 114 97 93 98 114 109 109 114 110 107 107 104 102 97 98 92 91 86 81
255 46 324 334 314 201 239 258 268 325 46 50 52 98 113 108 127 135 140 227 144 189 228 62 241 296 112 237 100 64 50 59 94 101 115 122 128 129 161 146 158 148 145 115 99 112 126 133 134 128 132 133 140 142 136 146 152 118 152 135 132 126 126 124 125 134 118 105 127 131 120 121 115 118 116 120 126 114 108 110 115 112 100 111 112 110 110 108 107 110 108 108 101 98 87 86 85
289 208 242 308 255 243 272 272 274 95 140 118 73 48 66 114 135 138 140 90 141 79 185 148 36 281 24 33 86 101 80 88 92 112 119 127 133 146 181 156 152 138 121 89 103 111 118 127 125 123 127 136 141 142 138 138 154 156 164 142 139 131 130 130 138 119 108 109 123 129 132 127 121 121 124 118 110 114 116 120 118 120 111 109 106 107 105 107 114 109 107 107 105 97 91 87 85
303 209 278 289 311 288 266 221 254 56 103 112 129 135 125 125 130 208 127 152 97 168 72 52 35 300 337 110 122 130 123 117 119 119 117 127 131 162 193 166 128 132 106 112 119 126 122 123 115 109 117 126 137 141 140 143 151 155 149 140 144 137 141 159 133 123 118 111 116 130 140 128 126 127 125 123 124 126 121 120 122 121 130 125 117 112 113 114 107 103 103 101 100 94 93 89 84
301 238 185 294 278 272 254 293 342 169 103 86 95 130 126 149 126 200 139 93 127 97 116 121 215 210 207 72 66 75 121 132 148 129 122 124 132 183 179 135 116 129 110 112 122 117 125 124 115 108 110 118 114 123 135 144 143 154 141 148 146 143 158 128 116 115 120 101 109 124 132 134 129 125 128 131 134 124 117 122 126 116 117 119 117 112 114 114 111 111 108 103 95 94 87 92 91
283 276 124 217 255 268 303 333 323 109 89 115 123 131 126 137 161 142 118 135 127 138 134 191 63 330 259 141 119 143 142 140 128 127 116 123 157 175 137 111 111 111 111 108 119 125 139 132 128 118 119 121 113 112 113 122 147 141 131 155 147 144 135 123 120 117 110 112 113 122 126 122 117 127 136 133 120 123 127 133 127 130 126 131 129 126 124 117 110 107 105 106 100 91 89 88 95
241 318 288 275 261 250 275 327 282 85 102 194 130 129 138 129 189 170 125 90 123 166 141 175 103 204 332 81 134 134 132 111 131 122 120 144 146 154 159 114 118 118 121 129 136 131 142 140 145 135 137 137 129 125 126 77 50 70 67 62 65 112 120 127 132 124 116 115 108 111 121 128 130 134 127 131 130 131 138 141 136 140 145 141 139 135 136 131 123 115 116 109 103 92 87 88 94
306 307 348 292 303 287 289 290 320 280 182 188 110 130 144 143 236 28 112 162 156 107 34 90 264 62 28 114 140 128 112 133 130 131 134 137 128 130 114 89 73 101 116 123 160 140 138 154 156 146 142 153 151 147 151 145 84 72 56 58 118 130 131 123 99 109 109 98 91 87 97 120 132 127 96 97 117 129 132 138 146 144 146 143 139 144 143 132 128 119 115 118 107 101 94 95 97
286 319 298 277 287 316 273 220 275 340 33 67 117 130 137 56 13 42 21 40 65 101 101 66 15 256 64 198 120 130 142 132 135 122 111 105 120 125 104 95 96 93 115 153 174 172 157 160 156 142 156 171 160 164 165 168 147 107 94 101 132 134 125 106 106 109 110 102 103 103 101 94 104 111 112 116 104 100 115 107 131 146 148 135 135 138 130 138 135 133 136 132 121 112 106 100 103
286 338 293 284 264 277 293 330 241 309 92 89 155 114 131 87 357 158 67 21 96 66 155 113 8 356 347 72 121 131 133 135 134 122 118 125 128 141 103 113 155 143 142 176 185 192 170 165 151 148 165 186 164 180 173 161 162 139 126 132 136 125 116 113 109 103 106 113 120 124 123 119 117 119 123 111 117 114 111 118 130 132 144 147 149 154 148 147 146 152 157 146 136 126 119 118 120
195 285 287 247 266 256 332 310 141 238 128 114 194 147 171 143 154 55 213 8 163 150 208 121 167 142 68 97 106 120 129 125 123 130 131 134 139 134 134 144 161 157 153 190 191 192 195 177 168 156 165 192 167 183 172 158 157 142 130 133 130 127 121 117 110 108 108 114 132 143 149 149 146 151 140 135 112 88 110 100 94 121 130 147 149 152 162 164 154 163 164 155 149 149 148 147 157
237 221 223 254 267 253 251 291 331 137 129 135 158 181 224 137 154 106 62 142 288 118 225 127 78 62 102 112 129 121 122 135 143 146 153 144 161 156 163 180 171 174 176 187 198 200 191 184 175 171 176 181 168 180 166 149 152 161 144 141 132 126 122 124 128 137 140 140 143 161 188 203 165 173 154 133 105 119 82 104 103 96 98 103 152 160 167 171 159 164 171 167 178 179 157 161 175
222 246 236 251 230 249 351 18 41 8 49 104 92 301 311 77 164 145 180 194 198 183 202 169 171 152 107 119 127 135 140 148 159 165 168 165 177 168 173 172 178 180 183 183 195 199 195 182 180 187 177 181 179 168 164 136 150 171 172 159 145 147 151 155 156 155 163 158 169 191 217 234 197 128 137 133 130 104 96 85 109 103 87 87 87 98 148 187 166 180 186 194 209 198 177 199 182
213 258 253 241 256 282 55 50 50 44 318 77 135 88 333 84 54 121 238 280 180 209 195 189 201 187 152 150 153 148 155 154 172 175 181 179 190 175 176 176 181 190 183 184 182 195 192 189 182 189 178 181 175 176 165 141 157 175 189 169 154 160 165 178 169 170 177 169 179 196 216 235 135 116 107 123 124 123 109 89 88 106 112 17 60 71 162 192 207 232 230 244 241 237 201 218 197
169 213 240 264 276 6 66 38 55 41 6 21 59 30 304 194 145 155 154 255 268 219 214 180 196 206 169 155 157 158 161 162 179 187 180 191 203 197 185 184 184 189 187 171 182 189 193 191 175 183 180 177 177 179 174 164 162 183 187 170 164 172 168 185 192 178 190 176 180 197 221 230 130 140 147 146 169 159 152 161 166 171 179 203 193 209 179 209 214 236 229 241 247 233 240 237 170
300 240 232 246 271 268 27 70 53 41 49 291 45 255 279 35 63 217 260 246 257 46 26 6 1 204 165 153 158 161 170 169 180 190 191 189 195 202 196 194 187 177 183 174 185 189 186 189 178 175 179 182 176 185 181 184 167 179 181 171 177 173 165 185 199 188 189 184 179 196 221 192 140 142 156 165 167 184 170 177 187 192 187 189 182 206 195 191 201 212 206 217 231 239 239 211 113
233 252 271 275 277 274 111 55 20 10 317 328 273 13 17 234 283 194 203 226 197 104 71 57 31 42 89 128 148 166 177 176 183 191 197 194 193 199 201 192 182 178 168 193 178 186 183 189 180 175 181 185 183 182 189 187 187 181 176 181 178 179 172 180 194 187 181 178 175 187 197 164 140 172 244 182 184 183 193 183 192 195 205 185 184 192 208 196 192 206 205 213 224 231 224 121 112
235 247 247 233 245 259 247 115 191 111 132 280 31 342 297 307 270 226 222 201 245 329 107 94 94 57 108 141 161 173 184 185 191 190 193 204 199 198 194 196 180 164 159 187 191 183 181 188 185 182 180 182 188 187 195 195 188 191 186 181 184 185 178 182 184 182 171 173 173 177 187 176 170 181 203 222 199 187 203 190 194 198 196 208 189 186 202 211 190 206 209 206 221 232 203 188 189
247 234 243 282 276 291 37 101 204 179 232 299 1 291 261 251 258 38 277 267 228 230 128 131 109 126 160 147 163 177 189 194 195 193 187 198 205 201 201 202 186 170 176 180 185 189 180 182 187 189 183 189 191 188 202 204 190 194 193 186 188 184 182 177 176 173 175 172 173 178 181 184 192 196 202 202 186 198 204 203 214 207 191 208 228 218 200 211 200 208 207 203 217 224 226 197 204
237 248 242 252 261 206 223 217 199 221 247 188 210 240 245 257 69 252 244 257 257 271 158 137 154 157 174 187 175 182 195 197 195 193 195 188 191 191 199 197 195 199 189 181 182 190 180 177 187 189 191 191 191 191 202 207 202 189 193 194 181 180 186 179 172 176 178 174 177 181 179 188 199 209 199 185 176 185 189 202 217 219 207 209 211 237 226 199 198 211 200 200 217 221 227 203 196
221 209 225 244 253 247 189 228 207 212 225 205 226 247 252 239 134 250 199 232 238 230 212 164 177 197 203 199 205 196 195 203 193 192 187 183 194 202 200 189 199 206 186 190 188 188 188 175 187 191 194 190 187 190 190 206 209 208 192 190 182 181 178 177 179 183 187 184 176 177 184 193 205 214 200 177 171 179 186 188 205 215 216 220 207 224 230 213 200 196 195 202 215 217 224 208 177
260 312 303 246 249 259 210 164 247 227 219 226 237 248 256 252 147 236 272 291 202 224 214 187 190 207 214 217 209 201 198 202 192 177 196 187 195 197 201 195 199 199 197 200 191 178 181 190 184 192 194 192 187 190 185 193 204 207 202 188 192 179 175 181 185 190 195 198 192 181 186 192 200 218 219 182 176 179 189 191 195 201 211 214 212 216 223 218 205 197 201 207 211 208 204 215 206
248 225 251 268 257 247 184 212 209 207 231 180 195 268 249 233 234 216 219 247 202 227 225 210 206 191 212 226 222 202 188 193 189 185 200 201 191 189 203 201 193 197 208 199 191 176 186 190 188 190 195 196 194 191 188 190 193 198 203 200 195 183 177 178 192 196 195 198 198 190 184 182 185 209 231 203 180 182 185 189 197 199 200 206 210 213 215 216 201 213 222 201 187 173 201 237 232
330 250 263 272 252 239 207 209 212 212 221 165 123 264 203 223 232 231 212 216 223 206 217 221 211 185 200 206 214 219 192 183 199 203 200 200 193 189 198 198 193 193 197 197 186 194 191 189 191 188 192 198 194 193 190 188 192 193 197 202 198 189 178 182 192 199 194 194 194 202 187 181 183 202 219 216 190 182 182 187 191 197 199 201 206 205 207 206 197 212 216 171 187 194 228 238 251
213 241 235 235 239 239 202 199 188 220 173 166 156 247 252 264 263 232 218 213 206 225 215 225 231 221 206 199 201 205 210 188 193 203 209 205 206 199 193 192 192 193 185 189 196 199 189 192 188 197 191 196 190 194 193 187 188 191 193 198 203 195 178 184 189 194 198 194 193 199 205 190 193 198 211 199 201 191 189 193 194 195 194 197 204 199 192 202 198 207 190 178 192 211 216 227 227
218 212 227 223 229 224 239 193 190 198 176 172 168 258 255 260 258 273 301 180 194 216 227 225 227 229 232 224 211 206 207 194 187 195 201 208 209 212 198 194 191 193 193 193 197 192 194 194 189 196 191 196 196 195 194 186 184 190 192 194 199 201 186 186 189 194 194 193 196 201 204 213 202 201 208 196 197 198 192 194 198 194 197 194 198 194 183 195 205 202 198 176 183 208 212 226 222
218 217 233 221 214 232 243 245 178 191 173 179 195 238 166 228 234 239 238 202 190 196 214 227 235 230 230 228 224 225 217 197 182 191 205 203 207 209 207 198 196 197 194 193 193 193 197 195 189 193 193 197 199 194 190 192 187 185 188 188 193 197 200 197 193 191 196 196 196 203 202 207 218 208 204 202 201 202 195 191 195 196 196 195 189 193 193 196 195 198 203 196 184 199 204 213 221
218 213 240 231 220 186 236 128 197 179 183 197 213 233 236 260 300 88 62 41 126 176 212 241 262 261 262 274 268 264 247 189 188 199 215 213 210 206 205 205 203 202 199 197 195 191 197 194 190 194 194 194 196 193 192 192 195 192 189 184 185 194 205 201 201 196 199 198 199 206 200 201 209 215 212 207 204 206 198 190 193 200 197 194 191 193 199 195 195 190 200 203 200 203 209 206 213
204 203 226 235 239 223 215 188 179 179 210 223 206 225 236 251 260 272 269 158 193 209 221 221 221 235 243 242 243 242 235 228 222 207 215 218 211 204 208 206 206 205 206 201 199 198 193 194 191 193 191 188 191 189 190 193 194 200 201 187 187 195 199 201 197 203 200 199 208 206 203 201 202 208 216 217 207 203 204 200 193 200 196 189 192 197 194 192 203 197 194 207 210 210 210 211 205
215 217 248 237 226 217 214 235 166 195 200 222 235 238 220 233 252 249 251 254 201 219 225 224 232 240 245 242 236 238 236 235 228 226 226 225 208 198 204 207 205 207 210 208 205 200 196 194 194 189 193 189 183 185 181 188 190 194 199 202 204 202 200 198 198 202 198 206 208 206 207 206 201 204 207 217 217 204 204 204 195 194 198 186 192 199 199 193 198 204 207 200 208 218 213 216 220
136 54 5 281 254 238 213 218 198 187 209 219 221 240 253 256 255 241 231 229 236 227 214 212 219 223 229 235 235 234 234 235 228 226 232 230 225 207 201 204 204 203 208 208 207 203 200 197 189 196 193 187 183 186 188 186 189 193 200 203 209 205 204 200 201 201 202 207 205 206 207 210 208 205 207 207 214 211 207 204 196 197 199 194 194 203 200 201 199 201 206 201 201 207 220 207 216
140 155 242 251 258 255 227 224 147 163 194 233 217 231 236 241 256 267 268 269 263 254 255 251 239 218 210 220 232 228 228 228 229 241 240 236 232 225 209 201 200 201 211 210 212 207 203 200 197 199 183 189 194 192 191 191 192 195 193 200 201 199 196 199 206 202 204 203 204 205 207 212 216 213 206 206 208 210 207 209 200 196 197 204 201 195 197 201 203 203 195 208 206 203 216 193 202
189 205 262 292 242 246 267 311 119 64 53 280 293 283 269 267 259 258 240 234 241 253 252 249 249 249 237 222 225 233 226 226 223 226 227 229 230 225 213 207 205 205 204 206 213 213 211 208 207 196 194 192 198 196 191 198 198 198 196 200 197 202 205 204 204 200 198 206 206 206 208 211 213 218 210 204 205 207 208 207 209 195 195 198 197 200 198 203 205 204 198 199 202 215 214 205 194
203 175 192 233 231 211 226 148 167 150 198 264 272 285 272 282 282 279 279 273 252 238 240 243 238 244 243 238 229 229 231 229 230 226 230 228 225 220 214 215 209 205 215 216 212 212 210 209 205 201 203 200 199 200 200 201 200 199 201 196 196 196 197 190 191 189 199 207 210 205 209 210 211 216 214 203 206 206 206 208 208 203 199 195 197 199 200 204 202 206 200 197 178 196 204 221 200
212 195 206 235 233 219 231 126 235 156 211 295 293 281 267 241 255 261 265 257 259 250 249 251 246 238 236 238 242 229 235 233 236 240 239 236 230 223 211 213 201 202 209 214 213 212 213 207 205 206 207 206 202 200 201 199 193 196 196 195 183 197 194 173 177 203 205 209 210 208 211 205 209 213 213 206 201 206 206 209 210 211 206 199 196 200 202 203 200 202 199 195 193 195 201 205 214
208 205 206 231 262 308 299 185 177 200 262 194 119 321 261 211 224 234 243 242 236 236 235 239 245 246 237 239 241 247 247 238 239 240 239 238 238 242 236 209 199 207 211 213 209 216 211 207 202 206 210 207 204 200 197 194 196 192 186 189 196 196 204 190 197 200 200 203 208 210 206 205 208 212 213 208 200 201 204 206 209 209 212 207 201 202 204 201 203 201 201 198 201 202 193 189 207
196 202 304 254 250 226 229 220 123 253 179 211 169 207 273 72 320 251 245 244 247 237 221 229 232 230 228 225 228 232 229 234 236 238 242 248 248 245 244 227 198 204 220 205 206 212 213 212 204 204 207 210 205 200 192 195 202 200 199 200 202 202 204 212 209 205 205 211 207 206 207 206 207 210 215 210 202 198 203 203 206 210 212 212 201 201 204 205 204 204 197 199 203 199 194 203 201
198 11 319 54 296 259 264 284 218 230 37 318 298 180 279 277 228 252 274 286 286 283 280 260 221 209 214 220 226 231 232 233 228 226 228 224 227 223 233 233 225 220 214 199 207 207 208 214 211 208 206 206 205 199 195 197 203 204 205 207 208 213 212 213 202 207 205 199 204 207 203 207 206 210 214 213 205 198 199 203 205 209 213 213 201 205 207 207 205 205 202 204 202 199 199 207 207
126 328 40 55 32 20 18 346 313 306 20 235 219 146 298 261 244 196 221 248 248 254 250 250 227 205 204 223 237 240 243 241 235 232 212 202 207 219 224 232 235 234 226 202 211 207 206 210 214 213 211 207 206 200 200 201 203 206 208 208 213 218 217 217 202 202 203 198 205 203 203 204 205 209 213 216 209 204 198 202 202 207 211 214 206 209 208 206 205 201 200 201 203 204 203 207 207
181 217 54 37 29 43 33 3 5 340 280 252 225 184 247 273 251 217 202 219 243 249 251 242 231 202 205 220 233 245 253 249 243 231 195 177 180 199 211 218 235 233 230 224 218 207 207 206 214 217 223 215 208 205 202 203 203 205 212 214 216 217 212 214 203 204 204 197 207 204 203 203 203 205 210 215 216 209 203 200 202 206 209 211 208 209 207 207 207 206 203 204 204 205 205 203 208
131 44 33 27 30 18 7 51 37 26 256 247 232 219 225 279 252 193 171 208 215 232 245 246 239 226 205 216 232 239 245 245 256 113 99 127 174 199 209 227 240 253 247 232 229 210 212 212 218 224 229 225 215 210 202 207 204 205 215 217 217 219 213 210 211 215 203 199 208 207 202 204 201 205 203 211 215 213 211 204 205 207 206 208 210 210 208 207 206 207 207 204 205 205 205 205 210
113 82 68 15 334 23 52 357 89 224 253 239 217 219 220 245 291 172 231 263 273 212 203 232 214 167 199 226 229 230 225 222 135 136 148 185 224 251 250 254 261 253 254 246 234 229 226 228 227 236 243 231 225 215 206 210 209 212 219 223 225 226 219 217 218 218 211 210 210 209 205 199 206 206 204 207 209 210 209 210 208 207 207 207 210 211 211 208 206 206 206 204 207 209 208 207 209
116 112 103 123 251 72 261 136 208 213 244 297 193 190 235 230 253 269 297 222 255 220 215 231 155 213 240 243 273 296 282 248 120 143 156 176 207 238 254 263 272 266 244 240 233 225 230 236 234 239 248 240 233 221 214 210 208 213 215 219 226 226 224 224 225 225 219 218 213 212 205 209 205 206 211 207 209 205 205 209 206 206 209 210 210 208 212 209 206 206 207 208 208 206 208 207 210
163 169 162 164 204 222 249 207 10 308 289 250 303 197 225 203 260 251 250 250 251 245 243 251 248 248 264 272 279 289 291 199 129 158 208 239 246 254 249 252 258 258 253 246 246 236 231 230 234 237 248 236 235 231 226 223 219 219 217 218 222 221 226 224 225 225 221 220 215 215 210 212 212 214 213 213 209 203 207 209 208 210 211 212 211 212 211 209 208 208 207 210 211 211 208 209 215
194 188 176 193 193 171 213 195 230 220 230 308 217 184 220 159 186 5 351 327 232 227 234 230 225 234 245 254 259 253 296 290 256 219 212 222 255 263 255 241 264 281 260 261 270 267 257 250 244 246 256 249 241 238 233 231 227 220 218 219 220 218 222 223 225 224 222 220 219 221 217 213 215 216 214 215 204 202 206 208 209 210 209 210 209 212 213 210 209 212 212 213 215 212 212 210 214
185 141 86 200 220 151 235 140 107 98 326 308 171 200 352 292 315 310 299 314 336 254 241 230 249 251 255 265 256 239 237 257 239 191 212 287 273 284 242 214 272 303 298 275 275 282 286 272 262 258 257 256 246 248 243 235 233 225 219 219 220 218 220 222 226 224 225 220 221 221 223 220 220 218 217 211 208 201 202 207 209 212 210 210 208 208 210 210 208 210 213 215 218 211 215 212 216
170 149 202 194 56 140 64 27 116 67 18 251 195 298 285 303 281 283 269 254 249 293 289 241 248 258 248 231 232 214 216 247 158 142 229 260 293 316 173 182 275 306 316 311 281 263 260 271 277 277 276 279 271 262 257 250 244 234 233 228 225 224 222 221 224 225 224 224 224 224 226 226 225 219 219 209 208 205 204 205 208 210 212 210 209 207 208 210 210 210 211 214 219 216 217 217 217
125 190 164 81 11 86 155 206 133 196 225 251 185 232 249 200 278 270 218 251 240 223 246 259 259 255 236 232 231 202 235 247 191 199 207 236 277 322 135 182 209 274 304 311 296 276 262 257 264 276 283 277 274 269 266 261 254 247 243 237 230 226 225 226 226 229 229 228 227 229 229 229 226 224 217 211 206 206 208 205 209 211 212 212 211 208 207 209 210 214 212 214 215 214 218 219 220
142 163 147 149 217 197 188 124 220 175 208 227 231 205 229 191 231 262 283 295 297 225 233 238 240 235 235 227 204 210 244 147 130 120 197 26 15 12 50 270 212 251 300 297 290 277 266 261 254 251 262 261 263 264 265 265 256 251 243 238 233 231 227 226 225 226 226 229 231 231 229 231 233 225 218 215 211 207 207 208 209 212 211 214 214 212 209 211 209 214 213 216 213 213 217 220 220
61 68 173 185 105 215 168 189 104 180 236 197 245 164 232 196 230 230 247 256 263 280 286 270 248 221 210 176 182 203 153 130 103 73 40 19 358 342 312 312 320 296 307 300 290 287 277 259 252 259 264 268 271 267 263 267 265 261 260 256 247 236 231 227 224 219 222 226 228 227 226 226 225 219 218 216 211 208 206 206 206 209 210 211 213 214 212 213 212 215 212 214 213 211 216 219 220
151 149 168 187 192 266 94 219 172 177 192 220 240 249 201 212 199 217 213 227 237 232 241 245 257 167 93 84 93 100 103 92 81 58 9 339 337 338 336 340 337 295 290 287 281 272 268 262 258 257 263 270 265 261 257 258 261 262 265 263 257 250 242 232 228 221 223 225 227 225 227 227 219 220 217 214 213 213 212 209 205 206 208 209 210 212 211 211 212 215 214 215 214 214 218 221 220
167 175 184 183 177 151 185 228 163 238 144 206 188 243 256 262 151 208 218 223 233 229 192 302 82 74 65 47 29 28 73 98 99 92 336 343 343 332 340 344 335 329 307 301 286 278 275 268 253 256 260 265 264 270 256 259 257 257 258 259 260 253 245 239 236 234 231 232 230 228 228 227 223 227 215 217 215 216 214 213 211 210 211 213 212 213 211 210 212 213 214 212 214 214 220 222 219